Location: Drignac
(45.1667°N, 2.0333°E)
Time: 22:49:23
(UTC+00:00)

Cosmos 1703 - Pass Details

Date: 29 March 2020
Orbit: 523 x 541 km, 82.5° (Epoch: 03 June)

Event Time Altitude Azimuth Distance (km) Brightness Sun altitude
Rises 20:46:46 0° 351° (N) 2,694 7.5 -25.4°
Reaches altitude 10° 20:48:55 10° 351° (N) 1,801 6.5 -25.7°
Enters shadow 20:51:33 41° 352° (N) 796 4.3 -26.1°
